| time (UTC) | temp F | wind direction | speed MPH | gust MPH | rain 1hr in | rain 24hr in | rain mn in | humidity % | barometer mb |
| 20260906170341 | 51 | 84 | 0.0 | 0.0 | 0.00 | 0.00 | 0.00 | 79 | 1013.3 |
| 20260906160410 | 44 | 68 | 0.0 | 0.0 | 0.00 | 0.00 | 0.00 | 100 | 1014.1 |
| 20260906150335 | 38 | 68 | 0.0 | 0.0 | 0.00 | 0.00 | 0.00 | 100 | 1014.6 |
| 20260906140339 | 37 | 68 | 0.0 | 0.0 | 0.00 | 0.00 | 0.00 | 100 | 1015.0 |
| 20260906130344 | 37 | 68 | 0.0 | 0.0 | 0.00 | 0.00 | 0.00 | 100 | 1015.6 |
| 20260906120332 | 37 | 68 | 0.0 | 0.0 | 0.00 | 0.00 | 0.00 | 100 | 1015.5 |
| 20260906110335 | 38 | 68 | 0.0 | 0.0 | 0.00 | 0.00 | 0.00 | 100 | 1016.0 |
| 20260906100343 | 38 | 68 | 0.0 | 0.0 | 0.00 | 0.00 | 0.00 | 100 | 1015.2 |
| 20260906090401 | 39 | 68 | 0.0 | 0.0 | 0.00 | 0.00 | 0.00 | 100 | 1015.3 |
| 20260906080350 | 40 | 68 | 0.0 | 0.0 | 0.00 | 0.00 | 0.00 | 100 | 1016.5 |
| 20260906070336 | 41 | 68 | 0.0 | 0.0 | 0.00 | 0.00 | 0.00 | 100 | 1016.5 |
| 20260906060359 | 44 | 68 | 0.0 | 0.0 | 0.00 | 0.00 | 0.04 | 100 | 1015.9 |
| 20260906050331 | 45 | 68 | 0.0 | 0.0 | 0.00 | 0.00 | 0.04 | 100 | 1015.8 |
| 20260906040333 | 47 | 68 | 0.0 | 0.0 | 0.00 | 0.00 | 0.04 | 100 | 1015.6 |
| 20260906030335 | 48 | 68 | 0.0 | 0.0 | 0.00 | 0.00 | 0.04 | 96 | 1015.7 |
| 20260906020344 | 51 | 75 | 0.0 | 0.0 | 0.00 | 0.00 | 0.04 | 82 | 1015.3 |
| 20260906010335 | 54 | 300 | 0.0 | 0.0 | 0.00 | 0.00 | 0.02 | 73 | 1015.6 |
| 20260906000336 | 55 | 248 | 0.0 | 0.0 | 0.00 | 0.00 | 0.02 | 80 | 1014.4 |
| 20260905230333 | 55 | 292 | 0.0 | 0.0 | 0.00 | 0.00 | 0.02 | 81 | 1015.3 |
| 20260905220328 | 60 | 144 | 0.0 | 0.0 | 0.00 | 0.00 | 0.00 | 53 | 1014.6 |
| 20260905210345 | 60 | 95 | 0.0 | 0.0 | 0.00 | 0.00 | 0.00 | 50 | 1014.5 |
| 20260905200356 | 60 | 77 | 0.0 | 0.0 | 0.00 | 0.00 | 0.00 | 54 | 1015.3 |
| 20260905190341 | 59 | 96 | 0.0 | 0.0 | 0.00 | 0.00 | 0.00 | 54 | 1015.4 |
| 20260905180357 | 57 | 134 | 0.0 | 0.0 | 0.00 | 0.00 | 0.00 | 56 | 1015.3 |